STARLINK-2281

Last updated on Sat Apr 24 2021 00:02:02 GMT+0000 (Coordinated Universal Time)

1 48015U 21024AQ 21113.25001157 .00075575 00000-0 53868-3 0 9998 2 48015 53.0485 55.6661 0000929 67.4307 100.6551 15.73169062 1820

Satellite not in orbit